www.pogodaiklimat.ru

Архив погоды в Львове (Львовская область, Украина)

Время
(UTC), дата
00 1.02
03 1.02
06 1.02
09 1.02
12 1.02
15 1.02
18 1.02
21 1.02
00 2.02
03 2.02
06 2.02
09 2.02
12 2.02
15 2.02
18 2.02
21 2.02
00 3.02
03 3.02
06 3.02
09 3.02
12 3.02
15 3.02
18 3.02
21 3.02
00 4.02
03 4.02
06 4.02
09 4.02
12 4.02
15 4.02
18 4.02
21 4.02
00 5.02
03 5.02
06 5.02
09 5.02
12 5.02
15 5.02
18 5.02
21 5.02
00 6.02
03 6.02
06 6.02
09 6.02
12 6.02
15 6.02
18 6.02
21 6.02
00 7.02
03 7.02
06 7.02
09 7.02
12 7.02
15 7.02
18 7.02
21 7.02
00 8.02
03 8.02
06 8.02
09 8.02
12 8.02
15 8.02
18 8.02
21 8.02
00 9.02
03 9.02
06 9.02
09 9.02
12 9.02
15 9.02
18 9.02
21 9.02
00 10.02
03 10.02
06 10.02
09 10.02
12 10.02
15 10.02
18 10.02
21 10.02
00 11.02
03 11.02
06 11.02
09 11.02
12 11.02
15 11.02
18 11.02
21 11.02
00 12.02
03 12.02
06 12.02
09 12.02
12 12.02
15 12.02
18 12.02
21 12.02
00 13.02
03 13.02
06 13.02
09 13.02
12 13.02
15 13.02
18 13.02
21 13.02
00 14.02
03 14.02
06 14.02
09 14.02
12 14.02
15 14.02
18 14.02
21 14.02
00 15.02
03 15.02
06 15.02
09 15.02
12 15.02
15 15.02
18 15.02
21 15.02
00 16.02
03 16.02
06 16.02
09 16.02
12 16.02
15 16.02
18 16.02
21 16.02
Ветер
(напр.,м/с)
Видим. Явления Облачность Т
(С)
Тd
(С)
f
(%)
Тe
(С)
Тes
(С)
Комфортность P
(гПа)
Po
(гПа)
Тmin
(С)
Tmax
(С)
R
(мм)
R24
(мм)
S
(см)
В 2 10 км ясно -5.0 -7.1 85 -9 -9 по сезону 1008.3 967.8
В 3 10 км 8/6 240 м
[St Ci fib]
-5.8 -7.3 89 -11 -11 по сезону 1006.6 966.2
СВ 1 8000 м дымка 8/8 360 м
[Sc]
-6.0 -7.1 92 -8 -8 по сезону 1006.8 966.2 -9.7 3
СВ 2 7000 м дымка 9/9 300 м
[St]
-4.0 -5.2 91 -8 -8 по сезону 1006.7 966.4
В 2 8000 м дымка 10/10 240 м
[St]
-2.1 -3.3 91 -6 -6 по сезону 1005.9 965.9
В 3 10 км дымка 10/10 300 м
[St]
-1.8 -3.8 86 -7 -7 по сезону 1006.6 966.7
В 2 9000 м дымка 10/10 1350 м
[Sc]
-2.2 -4.0 87 -6 -6 по сезону 1008.1 968.1 -1.7
В 1 10 км 10/10 330 м
[Sc]
-2.4 -4.0 89 -5 -5 по сезону 1008.8 968.8
ЮВ 2 8000 м дымка 10/10 270 м
[St]
-2.2 -3.4 91 -6 -6 по сезону 1009.7 969.6
ЮВ 5 8000 м дымка 10/10 570 м
[Sc]
-1.9 -3.0 92 -9 -9 по сезону 1009.6 969.6
ЮВ 4 9000 м дымка 10/10 210 м
[Sc]
-2.2 -3.1 94 -8 -8 по сезону 1010.5 970.4 -2.5 2
ЮВ 5 9000 м дымка 10/10 800 м
[Sc]
-1.6 -3.0 90 -8 -8 по сезону 1011.2 971.1
ЮВ 3 10 км 6/6 800 м
[Sc]
+1.4 -1.5 81 -3 -2 по сезону 1009.8 970.3
Ю 2 10 км 9/0
[Ac trans]
+2.3 -0.5 82 -1 -1 по сезону 1009.8 970.4
Ю 2 7000 м 6/0
[Ac trans]
-0.1 -1.2 92 -4 -4 по сезону 1010.3 970.6 +3.6
Ю 2 10 км 10/10 1410 м
[Sc]
+1.9 0.0 87 -1 -1 тепло 1010.2 970.8
ЮЗ 2 10 км 10/0
[Ac As]
+2.0 +0.1 87 -1 -1 тепло 1010.2 970.8
Ю 3 9000 м слаб. ливневой дождь 10/10 1200 м
[Cb calv]
+1.9 +1.1 94 -3 -3 по сезону 1008.4 969.0
ЮЗ 4 10 км в посл. час ливневой дождь 10/10 1050 м
[Cb calv]
+3.2 +1.1 86 -2 -2 тепло 1008.3 969.1 -0.3 1 1
ЮЗ 3 10 км {ливн. дождь} 10/10 800 м
[Cb calv]
+4.2 +1.5 83 +1 +1 тепло 1009.0 969.9
ЮЗ 4 10 км {ливн. дождь} 9/9 750 м
[Sc]
+6.3 +2.7 78 +3 +3 тепло 1008.1 969.3
Ю 3 10 км 8/8 1080 м
[Sc]
+5.6 +2.4 80 +2 +2 тепло 1008.2 969.2
Ю 3 10 км 4/0
[Ci fib]
+4.0 +1.7 85 0 0 тепло 1007.7 968.7 +7.0 0.0
Ю 4 10 км слаб. ливневой дождь 10/10 1200 м
[Cb calv]
+4.4 +3.2 92 -0 -0 тепло 1006.2 967.2
Ю 4 10 км слаб. ливневой дождь 10/10 900 м
[Cb calv]
+5.3 +4.6 95 +1 +1 тепло 1002.9 964.2
ЮЗ 4 10 км {ливн. дождь} 9/9 1000 м
[Sc]
+5.9 +4.7 92 +2 +2 тепло 1001.3 962.8
ЮЗ 3 10 км {ливн. дождь} 9/9 1300 м
[Sc]
+6.3 +3.7 83 +3 +3 тепло 1001.2 962.7 +2.8 6
ЮЗ 5 10 км слаб. ливневой дождь 10/10 840 м
[Cb calv]
+6.5 +4.9 90 +2 +2 тепло 1002.1 963.7
З 8
{18}
10 км слаб. ливневой дождь 10/10 420 м
[Cb calv]
+5.4 +3.7 89 -0 -0 по сезону 1003.9 965.1
СЗ 8 10 км {ливн. снег} 10/10 240 м
[Cb cap]
+1.4 0.0 90 -6 -6 по сезону 1010.3 970.8
СЗ 6 10 км {ливн. снег} 10/10 270 м
[St]
-1.1 -2.4 91 -8 -8 по сезону 1015.8 975.6 +7.2 3
СЗ 4 10 км 10/10 300 м
[St]
-1.1 -2.4 91 -7 -7 по сезону 1017.6 977.3
З 3 10 км 10/10 300 м
[St]
-1.3 -2.7 90 -6 -6 по сезону 1019.4 979.0
СЗ 3 10 км в посл. час ливневой снег 10/10 270 м
[Cb cap]
-1.4 -2.5 92 -6 -6 по сезону 1019.8 979.4
СЗ 2 10 км {ливн. снег} 10/10 450 м
[Sc]
-1.8 -3.9 86 -6 -6 по сезону 1020.4 980.0 -1.8 0.0
С 1 10 км 10/10 540 м
[Sc]
-1.6 -5.3 76 -4 -4 по сезону 1021.6 981.1
З 2 10 км 9/9 1380 м
[Sc]
-0.6 -4.7 74 -4 -4 по сезону 1021.0 980.8
СВ 2 10 км 9/9 720 м
[Sc]
-0.8 -5.0 73 -4 -4 по сезону 1021.0 980.8
В 1 10 км 9/0
[Ac trans]
-3.4 -6.6 78 -6 -6 по сезону 1022.0 981.2 -0.1
В 1 10 км 6/0
[Ci fib]
-4.3 -7.0 81 -7 -7 по сезону 1021.6 980.8
В 1 10 км 8/0
[Ac trans]
-4.1 -6.7 82 -6 -6 по сезону 1020.4 979.6
штиль 0 10 км 10/0
[Ac As]
-4.2 -6.9 81 -5 -5 по сезону 1020.0 979.2
В 1 10 км 9/0
[Ac trans]
-4.8 -6.8 86 -7 -7 по сезону 1019.6 978.8 -5.0
В 2 10 км 9/4 300 м
[St Ac trans]
-4.0 -6.6 82 -8 -7 по сезону 1020.2 979.4
СВ 2 10 км 5/0
[Ci fib]
-1.3 -9.3 54 -5 -2 по сезону 1018.8 978.5
СВ 1 10 км 8/0
[Ci fib]
-2.3 -10.5 53 -4 -4 по сезону 1019.1 978.6
СВ 1 10 км 8/0
[Ac trans]
-3.7 -8.5 69 -6 -6 по сезону 1020.0 979.3 -1.1
В 3 10 км 8/8 840 м
[Sc]
-5.5 -8.1 82 -11 -11 прохладно 1020.4 979.4
СВ 3 10 км 6/0
[Ac trans]
-7.6 -9.8 84 -13 -13 холодно 1020.7 979.4
В 3 10 км 6/0
[Ac trans]
-8.0 -9.8 87 -14 -14 холодно 1019.7 978.3
В 4 1100 м ливневой снег 10/10 400 м
[Cb calv]
-8.0 -9.0 92 -15 -15 холодно 1019.2 977.8 -8.2 2 1
В 4 9000 м слаб. ливневой снег 10/10 1050 м
[Cb calv]
-7.7 -8.7 93 -15 -15 очень
холодно
1018.3 977.1
В 3 4000 м слаб. ливневой снег 10/10 420 м
[Cb calv]
-7.3 -8.2 93 -13 -13 очень
холодно
1015.6 974.5
В 3 1400 м ливневой снег 10/10 330 м
[Cb cap]
-7.2 -8.1 93 -13 -13 очень
холодно
1013.2 972.3
В 3 1800 м ливневой снег [диам. гололёда 0 мм] 10/10 300 м
[Cb cap]
-7.2 -8.1 93 -13 -13 холодно 1012.5 971.5 -6.9 8
В 5 1800 м ливневой снег 10/10 240 м
[Cb cap]
-6.8 -7.6 94 -14 -14 холодно 1010.9 970.0
В 4 2900 м слаб. ливневой снег [диам. гололёда 0 мм] 10/10 330 м
[Cb cap]
-7.2 -8.1 93 -14 -14 холодно 1009.1 968.3
В 4 2800 м слаб. ливневой снег 10/10 330 м
[Cb cap]
-8.0 -9.0 92 -15 -15 очень
холодно
1007.7 966.8
В 4 1900 м крупа {ливн. снег} 10/10 420 м
[Cb calv]
-7.6 -8.9 90 -14 -14 холодно 1005.9 965.2 -8.1 21 11
В 4 10 км слаб. крупа {ливн. снег} 10/10 400 м
[Cb calv]
-6.9 -7.8 93 -14 -14 очень
холодно
1004.1 963.5
ЮВ 4 3300 м слаб. крупа {ливн. снег} 10/10 450 м
[Cb calv]
-6.1 -7.2 92 -13 -13 очень
холодно
1001.7 961.3
ЮВ 7 10 км крупа {ливн. снег, снег} 10/10 330 м
[Cb cap]
-5.6 -7.0 90 -14 -14 очень
холодно
999.2 959.0
ЮВ 4 6000 м крупа {ливн. снег, снег} 10/10 300 м
[Cb cap]
-5.1 -6.5 90 -12 -12 холодно 998.2 958.1 -5.1 7
штиль 0 2400 м слаб. ливневой снег 10/10 330 м
[Cb cap]
-4.5 -5.1 96 -6 -6 по сезону 998.7 958.8
СЗ 1 5000 м слаб. крупа {ливн. снег} 10/10 270 м
[Cb cap]
-5.1 -5.8 95 -8 -8 по сезону 1000.0 959.8
З 4 10 км слаб. ливневой снег 10/10 240 м
[Cb cap]
-6.7 -7.5 94 -13 -13 холодно 1002.1 961.7
З 3 10 км в посл. час ливневой снег 9/9 240 м
[Cb cap]
-7.4 -8.3 93 -13 -13 холодно 1004.8 964.2 -7.4 9 20
З 1 10 км 3/0
[Ci fib]
-5.6 -7.8 84 -8 -4 по сезону 1005.9 965.5
штиль 0 10 км 4/0
[Ci fib]
-0.1 -6.2 63 -1 +3 по сезону 1005.0 965.3
ЮВ 2 10 км 10/10 1080 м
[Sc]
-1.7 -5.8 74 -5 -5 по сезону 1005.3 965.5
ЮВ 2 10 км слаб. ливневой снег 10/10 1020 м
[Cb calv]
-1.3 -3.3 86 -5 -5 по сезону 1004.6 964.9 +2.4 0.0
штиль 0 2600 м слаб. ливневой снег 10/10 360 м
[Cb cap]
-1.8 -2.0 99 -3 -3 по сезону 1004.5 964.8
штиль 0 2100 м ливневой снег 10/10 180 м
[Cb cap]
-2.9 -3.3 97 -4 -4 по сезону 1005.1 965.1
СЗ 3 7000 м слаб. ливневой снег 10/10 120 м
[Cb cap]
-4.5 -5.4 93 -10 -10 по сезону 1006.7 966.3
СЗ 2 7000 м слаб. ливневой снег 10/10 210 м
[Cb cap]
-5.1 -6.1 93 -9 -9 по сезону 1007.7 967.2 -5.2 12 25
СЗ 1 5000 м дымка 10/10 210 м
[St]
-5.0 -6.3 91 -7 -7 по сезону 1009.1 968.6
Ю 1 5000 м дымка 10/10 330 м
[St]
-3.3 -5.4 85 -6 -6 прохладно 1008.8 968.6
ЮВ 1 6000 м дымка 10/10 750 м
[Sc]
-2.8 -5.1 84 -5 -5 по сезону 1008.3 968.3
В 1 3100 м слаб. ливневой снег 10/10 540 м
[Cb calv]
-3.6 -4.4 94 -6 -6 по сезону 1008.6 968.4 -2.7 0.9
СВ 3 1900 м ливневой снег 10/10 300 м
[Cb cap]
-4.0 -4.5 96 -10 -10 прохладно 1008.8 968.5
СВ 3 2500 м слаб. ливневой снег 10/10 150 м
[Cb cap]
-4.1 -4.6 96 -10 -10 по сезону 1008.7 968.4
С 3 2200 м слаб. ливневой снег 10/10 210 м
[Cb cap]
-4.6 -5.2 96 -10 -10 по сезону 1008.9 968.6
С 4 600 м ливневой снег 10/10 210 м
[Cb cap]
-5.4 -5.8 97 -12 -12 прохладно 1010.4 969.8 -5.4 15 34
С 3 1600 м ливневой снег 10/10 240 м
[Cb cap]
-5.5 -5.9 97 -11 -11 прохладно 1012.4 971.7
С 3 1200 м ливневой снег 10/10 330 м
[Cb cap]
-6.3 -7.1 94 -12 -12 холодно 1012.7 971.9
СЗ 4 1100 м ливневой снег 10/10 270 м
[Cb cap]
-7.9 -8.9 93 -15 -15 очень
холодно
1015.2 974.0
СЗ 5 3600 м слаб. ливневой снег {метель} 10/10 360 м
[Cb calv]
-10.1 -12.1 85 -18 -18 очень
холодно
1018.0 976.4 -5.3 11
СЗ 4 4200 м слаб. ливневой снег {метель} 10/10 870 м
[Cb calv]
-11.1 -12.4 90 -18 -18 очень
холодно
1019.9 978.0
СЗ 5 4700 м слаб. ливневой снег {метель} 10/10 540 м
[Cb calv]
-12.4 -13.7 90 -20 -20 очень
холодно
1021.5 979.4
СЗ 5 7000 м слаб. ливневой снег 10/10 1080 м
[Cb calv]
-13.7 -15.0 90 -22 -22 очень
холодно
1022.6 980.1
СЗ 6 6000 м слаб. ливневой снег 10/10 500 м
[Cb calv]
-14.5 -16.5 85 -24 -24 очень
холодно
1023.7 981.2 -14.7 2 40
СЗ 6 9000 м слаб. ливневой снег 9/9 540 м
[Cb calv]
-13.9 -15.9 85 -23 -23 очень
холодно
1023.9 981.4
СЗ 6 3300 м слаб. ливневой снег 9/9 450 м
[Cb calv]
-12.2 -14.9 80 -21 -21 очень
холодно
1023.6 981.4
СЗ 7 3600 м слаб. ливневой снег {метель} 10/10 630 м
[Cb calv]
-10.6 -14.2 75 -20 -20 очень
холодно
1023.8 981.9
СЗ 6 7000 м слаб. ливневой снег {метель} 10/10 900 м
[Cb calv]
-11.3 -14.1 80 -20 -20 очень
холодно
1025.7 983.6 -10.2 1
СЗ 6 10 км {ливн. снег, снег} 10/0
[Ac As]
-13.0 -15.7 80 -22 -22 очень
холодно
1026.6 984.1
СЗ 5 10 км {ливн. снег, снег} 3/0
[Ac trans]
-14.2 -16.2 85 -23 -23 очень
холодно
1027.1 984.5
СЗ 5 6000 м слаб. снег 10/8 180 м
[Frnb As op]
-14.6 -16.6 85 -23 -23 очень
холодно
1027.1 984.5
З 4 10 км в посл. час снег 6/3 300 м
[St Ci fib]
-14.8 -16.8 85 -23 -22 очень
холодно
1028.1 985.2 -15.2 0.0 37
З 6 10 км ледяные иглы {снег} 8/3 200 м
[St Ci fib]
-12.2 -14.9 80 -21 -20 очень
холодно
1028.5 986.1
СЗ 6 9000 м слаб. снег 10/10 400 м
[Ns]
-8.8 -11.2 83 -17 -17 очень
холодно
1029.2 987.3
СЗ 4 10 км слаб. снег 10/10 420 м
[Ns]
-6.9 -8.9 86 -14 -14 очень
холодно
1029.2 987.5
СЗ 3 4700 м слаб. ливневой снег 10/10 480 м
[Cb calv]
-6.1 -6.9 94 -12 -12 прохладно 1029.3 987.8 -6.1 0.4
СЗ 2 9000 м слаб. ливневой снег 10/10 300 м
[Cb cap]
-4.7 -5.3 96 -9 -9 по сезону 1029.2 988.0
СЗ 4 10 км слаб. ливневой снег 10/10 420 м
[Cb calv]
-4.1 -5.3 91 -10 -10 по сезону 1030.1 988.9
СЗ 4 10 км слаб. снег {ливн. снег} 10/10 700 м
[Ns]
-4.5 -6.1 89 -11 -11 по сезону 1030.7 989.4
З 4 7000 м слаб. снег {ливн. снег} 10/8 210 м
[Frnb As op]
-5.1 -5.8 95 -12 -12 прохладно 1031.4 990.0 -6.1 2 38
З 5 8000 м слаб. снег 10/8 240 м
[Frnb As op]
-4.5 -5.4 93 -12 -12 прохладно 1031.8 990.5
СЗ 6 9000 м слаб. ливневой снег 10/10 330 м
[Cb cap]
-3.9 -5.8 87 -11 -11 холодно 1032.0 990.7
З 5 9000 м слаб. ливневой снег 10/10 300 м
[Cb cap]
-4.1 -5.7 89 -11 -11 прохладно 1031.8 990.5
З 6 9000 м слаб. ливневой снег 10/10 660 м
[Cb calv]
-4.6 -6.2 89 -12 -12 прохладно 1032.5 991.2 -3.8 1
З 6 7000 м слаб. ливневой снег {метель} 10/10 300 м
[Cb cap]
-5.1 -6.1 93 -13 -13 прохладно 1032.2 990.8
СЗ 6 1700 м ливневой снег {метель} 10/10 330 м
[Cb cap]
-5.1 -6.5 90 -13 -13 прохладно 1032.1 990.7
СЗ 5 5000 м слаб. ливневой снег {метель} 10/10 270 м
[Cb calv]
-5.6 -6.7 92 -13 -13 прохладно 1031.9 990.5
З 5 6000 м слаб. ливневой снег {метель} 10/10 240 м
[Cb cap]
-6.1 -6.9 94 -14 -14 прохладно 1032.5 990.9 -6.1 2 36
СЗ 6 6000 м слаб. ливневой снег 10/10 330 м
[Cb cap]
-5.0 -6.0 93 -13 -13 холодно 1033.1 991.6
СЗ 6 10 км {ливн. снег} 8/8 1170 м
[Cb calv]
-3.1 -9.4 62 -10 -10 прохладно 1032.8 991.7
СЗ 5 8000 м слаб. ливневой снег 10/10 400 м
[Cb calv]
-5.0 -5.7 95 -12 -12 холодно 1033.1 991.6
СЗ 3 6000 м слаб. ливневой снег 10/10 720 м
[Cb calv]
-5.7 -6.4 95 -11 -11 прохладно 1033.0 991.5 -2.2 3
СВ 2 10 км в посл. час ливневой снег 8/8 420 м
[Cb calv]
-6.0 -7.1 92 -10 -10 по сезону 1033.4 991.7
штиль 0 10 км {ливн. снег} 6/6 1230 м
[Sc]
-9.7 -11.4 87 -10 -10 по сезону 1033.3 991.2
штиль 0 9000 м дымка ясно -17.2 -18.4 90 -17 -17 очень
холодно
1033.3 989.9
штиль 0 10 км 4/0
[Ci fib]
-19.6 -21.5 85 -20 -19 очень
холодно
1033.2 989.3 -20.6 1 38
ЮВ 3 10 км 3/0
[Ci fib]
-7.3 -11.6 71 -13 -10 холодно 1029.9 988.2
ЮВ 3 10 км 3/0
[Ci fib]
-4.8 -10.6 64 -10 -7 холодно 1027.7 986.5
ЮВ 2 10 км 6/0
[Ci fib]
-5.9 -11.2 66 -10 -10 прохладно 1025.7 984.4
ЮВ 2 10 км 6/0
[Ci fib]
-9.2 -12.6 76 -14 -14 холодно 1024.6 982.9 -4.1
Ю 3 10 км 10/10 1440 м
[Sc]
-7.6 -10.2 82 -13 -13 холодно 1022.4 981.0
Местоположение метеостанции Львов (Львовская область, Украина): широта 49.82 долгота 23.95 высота над уровнем моря 323 м.
В архиве по умолчанию представлена погода в Львове за последнюю неделю. Архивные данные за месяц целиком и за предыдущие месяцы, начиная с января 2011 года, Вы можете получить, выбрав интересующий диапазон дат из раскрывающегося списка и нажав кнопку "Найти!".
*Определитесь, кто Вы:
Внимание! Время в таблицах - всемирное. Для получения местного времени необходимо прибавить поправку, которая равна 2 ч.
Смотрите также архив погоды в соседних городах и на ближайших метеорологических станциях:
Партнеры нашего сайта:      
Пояснения к столбцам:
  • Ветер - указаны скорость ветра в м/с - средняя за 10 мин, порывы в срок и между сроками (в фигурных скобках) и направление, откуда дует ветер: С - северный,
  • СВ - северо-восточный, В - восточный, ЮВ - юго-восточный, Ю - южный, ЮЗ - юго-западный, З - западный, СЗ - северо-западный.
  • Видимость - горизонтальная дальность видимости в метрах или километрах. При видимости от 1 до 10 км при отсутствии осадков обычно наблюдается дымка, при ухудшении видимости до 1 км и менее - туман. В сухую погоду видимость может ухудшаться дымом, пылью или мглою.
  • Явления - указаны атмосферные явления, наблюдавшиеся в срок или в последний час перед сроком; фигурными скобками обозначены явления, наблюдавшиеся между сроками (за 1-3 часа до срока); квадратными скобками обозначены град или гололедные отложения с указанием их диаметра в мм.
  • Облачность - указаны через наклонную черту общая и нижняя облачность в баллах и высота нижней границы облаков в метрах; квадратными скобками обозначены формы облаков: Ci - перистые, Cs - перисто-слоистые, Cc - перисто-кучевые, Ac - высококучевые, As - высокослоистые, Sc - слоисто-кучевые, Ns - слоисто-дождевые, Cu - кучевые, Cb - кучево-дождевые. Подробнее классификацию облаков см. в Атласе облаков (PDF).
  • T - Температура воздуха - температура, измеренная на высоте 2 м над землей.
  • Td - Температура точки росы - температура, при понижении до которой содержащийся в воздухе водяной пар достигнет насыщения.
  • f - Относительная влажность воздуха - влажноcть воздуха, измеренная на высоте 2 м над землей.
  • Te - Эффективная температура - температура, которую ощущает одетый по сезону человек в тени. Характеристика душности погоды. При расчете учитывается влияние влажности воздуха и скорости ветра на теплоощущения человека.
  • Tes - Эффективная температура на солнце - температура, которую ощущает человек, с поправкой на солнечный нагрев. Характеристика знойности погоды. Зависит от высоты солнца над горизонтом, облачности и скорости ветра. Ночью, в пасмурную погоду, а также при ветре 12 м/с и более поправка равна нулю.
  • P - Атмосферное давление - приведенное к уровню моря атмосферное давление.
  • Po - Атмосферное давление - измеренное на уровне метеостанции атмосферное давление.
  • Tmin - Минимальная температура - минимум температуры воздуха на высоте 2 м над землей.
  • Tmax - Максимальная температура - максимум температуры воздуха на высоте 2 м над землей.
  • R - Количество осадков - Количество выпавших осадков за период времени, мм. При наведении курсора мыши на число - период времени, за который выпало указанное количество осадков.
  • R24 - Количество осадков - Количество выпавших осадков за 24 часа, мм.
  • S - Снежный покров - Высота снежного покрова, см. При наведении курсора мыши на число - состояние снежного покрова и степень покрытия местности в баллах.